Theta_e
321 320 320 321 321 320 320 320 319 320 321 321 320 320 323 324 324 327 336 337 333 334 335 334 334 335 334 334 334 334 334 334 334 334 335 335 336 336 336 336 337 337 336 336 337 337 338 342 344 345 346 347 349 350 352 353 353 353 353 353 352 351 352 352 354 356 357 356 354 351 350 350 350 349 347 346 345 344 345 345 345 345 343 344 346 347 346
319 319 319 320 320 319 320 319 319 320 320 320 320 322 323 325 327 332 335 334 334 334 333 334 334 334 334 334 334 333 334 333 334 334 334 335 335 335 336 336 335 336 335 336 336 336 335 336 340 343 343 345 347 349 349 350 351 352 353 353 353 353 352 352 352 354 356 356 354 352 351 350 351 352 350 348 347 345 345 345 345 345 344 342 343 345 347
318 318 318 319 318 318 317 318 319 319 318 319 320 322 323 325 328 333 333 333 333 333 333 334 333 333 333 333 333 333 332 333 333 333 334 334 335 335 334 335 335 335 335 336 336 337 335 332 333 338 341 343 344 347 349 349 350 351 351 351 352 353 353 352 351 351 353 354 355 355 354 352 353 354 353 351 350 348 345 345 345 346 345 343 342 342 344
315 317 317 317 317 317 315 316 318 318 317 318 318 321 322 323 326 330 331 331 332 333 333 334 333 332 333 333 333 334 333 333 332 332 333 333 333 334 334 335 335 335 335 335 335 336 336 333 331 333 337 341 343 344 345 347 349 349 349 350 350 351 352 352 351 350 350 351 353 355 355 355 355 356 355 354 353 352 350 348 345 346 347 346 344 342 341
314 316 317 317 315 314 313 315 316 317 318 318 318 319 321 323 324 326 329 330 332 332 331 331 331 332 333 333 333 333 332 332 332 331 332 332 333 333 333 334 334 334 335 335 335 335 335 334 333 332 333 336 339 342 342 343 345 347 348 349 350 349 350 352 353 353 352 351 352 353 355 356 357 356 355 355 355 355 354 353 350 347 347 347 347 346 344
313 316 317 316 314 312 313 316 318 318 318 318 317 318 320 324 325 326 329 331 332 331 331 330 330 331 332 331 331 332 331 331 330 331 331 331 332 332 331 332 333 332 333 333 334 335 335 335 334 333 333 332 334 338 340 341 342 343 343 345 347 347 349 351 352 353 353 352 352 353 354 355 356 356 355 355 355 354 354 353 352 351 350 348 349 348 348
315 316 316 315 314 314 316 319 318 318 319 318 318 319 320 324 326 327 329 331 330 331 330 329 329 330 331 330 330 331 330 329 330 329 329 329 330 329 329 330 331 330 330 330 331 333 334 335 334 331 332 333 330 329 332 335 339 341 336 333 337 341 343 346 348 351 352 353 353 354 354 354 354 355 354 354 354 353 352 350 351 351 351 351 351 351 351
317 316 316 316 317 318 318 319 319 318 319 319 320 321 322 323 326 328 329 329 330 330 329 329 329 329 330 328 329 329 329 328 328 328 327 327 328 327 327 327 329 329 328 327 329 330 332 334 333 330 331 334 331 327 324 325 334 340 335 328 328 332 335 337 339 343 347 350 352 353 354 354 354 354 354 353 353 353 352 350 350 350 351 352 354 354 354
317 314 315 317 318 318 319 319 318 318 319 318 319 319 322 324 325 326 328 329 329 328 327 328 328 328 327 327 327 328 327 327 326 326 326 326 325 325 325 324 326 328 327 325 326 328 329 331 330 329 332 335 334 332 326 320 324 331 332 328 325 327 331 333 335 337 338 341 346 350 351 353 353 354 355 354 353 354 352 351 351 351 352 352 354 356 356
316 314 315 316 315 316 318 320 320 319 319 320 319 318 320 323 322 324 327 328 328 328 327 326 327 325 325 325 326 326 326 325 325 324 324 324 323 323 322 321 322 325 325 323 323 325 328 328 326 327 331 334 334 334 331 326 324 325 326 325 323 322 325 328 333 338 338 335 339 344 347 349 351 352 354 354 354 353 353 352 353 352 353 352 353 355 357
318 316 315 314 316 318 320 321 321 321 320 321 319 315 317 322 322 322 326 327 326 326 326 326 324 322 322 324 326 325 325 324 323 323 323 322 322 321 320 319 321 323 321 319 320 323 326 326 324 324 329 331 332 334 332 330 331 331 327 323 321 321 324 322 326 337 340 336 333 336 340 344 348 350 352 353 354 354 354 355 355 355 354 354 353 353 354
317 318 316 315 318 321 322 321 320 319 318 318 316 313 316 322 323 323 326 326 324 325 325 324 322 321 322 325 324 323 323 322 322 321 321 321 320 320 319 319 320 320 319 318 319 322 323 323 323 322 327 329 330 332 332 331 333 334 331 327 321 319 322 322 322 332 339 336 332 332 335 338 343 348 350 351 353 354 355 355 355 355 354 354 354 353 353
314 315 314 315 320 324 323 320 319 318 315 315 315 316 321 324 322 321 324 324 323 324 324 321 321 322 323 323 322 321 320 320 319 319 319 319 319 319 319 320 319 319 320 320 321 322 321 321 321 322 325 327 328 330 330 331 331 332 332 331 327 320 318 320 321 327 333 333 332 332 332 332 337 344 348 350 351 353 354 355 354 354 354 354 355 354 353
313 314 313 314 319 324 323 320 319 318 316 316 319 323 325 324 322 322 323 323 323 323 322 321 321 322 321 319 319 318 318 318 318 318 318 318 319 318 318 319 319 320 321 322 322 322 321 320 321 322 324 324 326 327 328 329 330 331 332 332 330 326 323 322 322 323 326 327 327 332 334 333 333 337 343 349 352 351 352 353 354 354 353 353 354 355 354
315 315 314 314 319 324 323 321 320 319 319 321 324 326 324 322 322 322 322 322 322 321 320 319 319 320 319 318 318 317 317 318 318 317 318 318 318 318 317 317 319 320 320 321 321 322 321 321 322 323 323 323 324 325 326 326 328 330 332 331 329 329 330 329 325 321 322 323 321 328 338 339 334 332 335 340 344 344 346 348 351 353 355 354 354 354 354
316 315 315 317 321 323 322 321 322 322 322 324 325 324 323 323 322 321 321 321 321 320 319 319 318 318 318 316 317 317 317 317 317 317 318 318 318 317 317 317 318 319 319 320 321 321 321 322 321 321 322 323 323 323 323 324 326 330 332 330 328 330 332 331 327 322 321 323 322 327 338 342 338 335 333 332 333 335 337 339 342 347 352 354 355 355 354
319 318 319 321 322 323 321 321 322 323 323 323 323 322 323 322 321 321 320 320 320 320 319 318 317 317 316 316 317 317 316 316 317 317 317 318 318 318 318 318 318 318 317 318 319 319 321 321 321 321 321 323 324 324 324 324 326 328 327 327 330 331 330 330 330 326 321 324 330 333 334 336 337 340 339 337 335 335 333 332 335 338 344 349 353 355 355
320 320 321 321 321 322 322 320 321 322 323 323 322 320 321 320 319 319 319 319 320 320 319 318 317 316 317 316 316 317 317 317 316 317 317 318 318 318 318 318 318 317 317 317 318 319 320 321 321 321 321 322 323 324 324 324 324 324 324 326 329 330 328 328 330 329 325 326 331 332 330 332 337 339 341 341 341 339 334 331 330 332 336 341 346 350 352
319 319 320 320 321 321 321 320 320 321 321 322 320 317 317 318 318 318 319 318 319 319 318 317 317 316 316 316 316 317 317 317 317 317 317 318 318 318 318 318 318 318 318 318 319 319 319 319 320 320 320 320 320 320 322 324 324 323 324 325 326 327 328 328 328 329 328 328 328 329 330 333 335 334 335 339 342 343 340 334 328 327 329 332 336 339 342
318 318 320 321 320 320 321 320 320 320 321 321 320 318 317 318 318 318 318 318 318 317 316 316 317 317 316 316 316 317 317 316 317 317 317 317 317 317 317 317 317 318 318 318 318 318 318 318 319 319 319 319 319 319 320 322 323 324 323 324 325 327 328 327 326 328 329 328 328 330 332 332 332 331 331 331 333 337 338 334 329 326 325 325 329 333 335
319 319 319 320 319 319 320 320 319 319 319 320 320 319 318 318 318 318 318 317 317 317 316 317 317 317 316 317 317 317 317 317 317 317 317 317 317 316 316 317 317 317 317 317 318 318 317 318 317 318 319 319 319 319 319 319 321 323 324 325 326 327 327 326 326 327 328 329 329 330 329 328 328 330 328 325 323 325 328 327 326 326 325 324 326 329 332
320 320 320 321 320 320 320 319 319 319 318 318 319 319 319 319 318 318 317 318 317 317 316 316 316 316 316 317 317 317 317 316 316 316 317 316 316 316 316 316 316 316 316 317 317 317 317 317 317 317 318 318 319 319 319 319 321 322 323 324 325 325 326 326 326 326 327 328 328 327 326 323 322 322 323 325 325 324 321 322 324 324 325 325 326 327 328
321 321 321 321 321 320 320 320 319 319 319 318 318 318 318 319 319 318 317 318 317 317 316 316 316 316 316 316 316 316 316 316 316 316 316 316 315 315 315 315 315 316 316 316 316 317 317 317 317 317 317 318 318 319 319 319 320 321 323 324 324 325 325 325 324 325 326 326 326 326 327 325 324 324 325 326 327 326 324 323 322 322 323 323 324 326 326
322 322 323 322 322 321 321 321 320 320 319 319 319 318 318 318 317 317 318 318 317 317 316 316 316 316 315 315 315 315 315 315 315 316 315 315 315 314 314 315 315 315 315 316 316 316 316 317 317 317 317 317 318 318 318 319 319 320 321 323 324 324 324 324 324 324 324 324 325 326 326 324 325 327 328 328 328 329 328 325 322 320 320 321 322 323 325
322 322 322 321 321 321 320 320 320 320 319 319 319 318 318 318 317 317 318 318 318 317 317 317 316 316 315 315 314 314 314 314 314 314 314 314 314 314 314 314 314 314 315 315 315 315 315 316 317 317 317 317 317 317 318 318 319 319 319 321 323 323 324 325 325 324 323 324 324 324 323 323 324 327 329 329 329 329 328 325 322 321 320 320 321 321 323
321 321 320 320 320 320 319 319 320 320 319 320 320 319 319 318 317 317 317 318 317 317 317 316 316 316 315 314 314 313 313 313 313 313 313 313 313 314 314 314 314 314 315 315 315 315 315 317 318 318 318 317 317 317 318 318 318 319 319 320 322 323 323 324 325 325 323 322 323 324 324 324 326 327 327 328 328 329 327 324 321 321 321 321 323 324 324
320 320 319 319 319 319 319 319 320 319 319 318 318 319 319 318 317 317 317 317 317 317 317 317 316 315 314 314 314 313 313 312 312 313 312 313 313 313 313 313 314 314 314 314 314 315 316 318 318 319 318 318 318 318 318 318 318 318 319 320 321 322 322 323 324 324 324 322 323 323 324 324 325 325 324 324 324 324 323 323 322 323 324 326 329 330 327
320 319 319 319 319 319 319 319 319 319 318 317 317 318 318 318 317 317 317 317 317 317 317 317 316 315 315 314 313 313 312 312 312 312 312 312 312 312 313 313 314 314 313 313 314 315 317 317 318 318 318 318 318 318 318 318 318 318 319 320 321 322 322 322 323 324 323 323 323 323 323 324 323 322 321 319 319 319 321 324 326 329 329 330 330 329 328
319 319 319 319 318 318 318 318 318 318 319 318 318 318 318 318 318 317 317 317 317 317 317 316 315 315 314 313 313 313 312 312 312 312 312 312 312 312 313 313 313 313 313 313 314 315 315 315 316 317 317 318 318 318 317 317 318 318 319 320 321 321 322 323 323 323 323 322 322 322 322 322 321 320 319 319 320 322 324 327 329 330 329 329 328 329 331
318 318 318 317 317 318 318 318 318 318 318 319 319 319 318 318 318 317 317 317 317 317 317 316 315 314 314 313 313 313 312 312 312 312 312 312 312 312 312 313 313 313 313 313 313 313 313 313 314 315 315 316 317 317 317 317 317 317 319 320 320 321 322 322 322 322 321 321 321 320 320 320 320 320 320 321 322 324 325 327 328 328 329 329 330 331 332
316 317 317 316 317 317 317 317 317 317 317 317 318 319 318 318 318 318 317 317 317 317 316 316 315 314 314 313 313 312 312 312 312 312 312 311 311 311 312 312 312 312 312 312 312 312 312 313 313 313 313 314 314 315 315 316 317 318 319 320 320 321 321 321 320 320 320 320 320 319 320 320 320 320 321 321 322 323 325 326 327 327 328 329 330 331 331
315 315 315 315 315 316 316 315 315 316 316 316 317 318 319 318 318 317 317 317 317 317 316 316 315 314 313 313 312 312 312 312 312 311 311 311 311 311 311 311 311 311 311 311 311 311 311 312 312 312 312 312 312 313 313 314 316 317 318 319 319 319 319 319 319 319 318 319 319 319 319 320 320 320 320 321 321 322 323 325 325 326 327 327 328 329 330
314 314 314 314 314 315 315 315 315 316 316 316 316 316 317 318 317 316 316 317 317 316 316 315 314 313 313 312 312 312 312 312 311 311 311 311 310 310 309 309 309 310 310 311 310 310 310 311 311 311 311 311 311 311 312 313 314 315 315 316 317 317 317 317 317 317 317 318 318 318 319 319 320 320 320 320 321 322 322 323 323 324 325 326 326 327 327
312 312 313 313 313 313 314 314 314 315 315 316 316 315 315 317 317 316 316 316 316 315 315 314 314 313 313 312 312 312 312 311 311 311 310 310 310 309 308 308 308 309 309 310 310 310 309 310 310 310 310 310 310 310 311 312 313 313 313 313 314 314 315 315 316 316 316 317 317 318 318 318 319 319 320 320 320 321 321 322 322 322 323 323 324 324 325
312 312 311 312 313 312 313 313 314 314 314 316 316 315 314 316 317 316 315 315 314 314 314 314 313 312 312 311 311 311 311 311 310 310 309 309 309 308 308 307 307 308 309 309 309 309 308 308 308 308 308 308 309 310 310 311 311 312 312 312 312 313 313 314 314 314 315 315 316 316 316 317 318 318 319 319 319 320 320 320 320 320 320 321 321 322 323
311 311 311 312 312 312 312 313 313 314 314 315 315 315 314 315 315 315 314 314 314 313 313 312 312 311 311 311 311 311 310 309 308 308 308 307 307 307 307 306 306 307 308 308 308 308 307 306 306 307 307 307 308 309 309 309 310 310 310 310 311 311 311 312 312 312 313 313 314 315 316 316 317 317 317 317 318 318 318 318 318 318 319 319 320 320 320
310 310 310 311 311 311 312 312 312 314 315 315 316 316 315 315 315 316 314 313 312 312 311 310 310 310 310 310 309 309 308 308 307 307 306 306 306 307 306 306 306 306 307 307 306 306 305 305 305 305 305 306 307 307 307 307 308 308 308 308 309 310 310 311 311 311 311 312 313 314 315 315 315 316 316 317 317 317 317 317 317 318 318 318 318 318 318
308 308 309 309 310 310 311 311 312 314 315 315 316 316 317 316 316 315 313 311 311 311 310 309 309 309 309 308 308 307 307 307 306 306 306 306 306 306 306 306 305 305 305 305 305 304 304 304 304 305 305 305 306 306 305 306 306 306 306 307 307 307 308 309 309 310 310 311 311 312 313 313 314 314 315 316 316 316 316 316 317 317 317 317 317 316 316
308 308 308 308 308 309 310 310 311 313 315 315 315 316 317 316 315 313 312 310 310 309 309 309 309 308 308 307 307 307 306 306 305 305 305 305 305 305 305 305 304 304 304 304 303 303 302 303 303 304 304 304 304 304 304 304 304 305 304 304 305 306 306 307 308 308 309 310 310 311 311 312 313 313 314 314 315 315 315 315 315 315 316 316 315 315 315
307 307 307 308 308 309 309 310 311 312 313 314 314 315 316 314 312 311 310 310 309 309 309 308 308 308 307 307 307 306 306 305 305 305 305 305 305 305 304 304 303 303 303 302 302 302 302 302 303 303 303 303 303 303 303 303 303 303 303 303 304 305 306 307 307 308 308 309 310 310 310 311 312 312 313 314 314 314 314 315 314 314 314 314 313 313 314
307 307 307 307 308 308 309 309 311 312 312 313 314 315 314 312 310 309 309 309 308 308 308 308 307 307 307 306 306 306 305 305 305 304 304 304 304 304 304 303 302 302 302 301 301 301 302 302 302 302 302 301 301 301 302 301 301 301 302 303 304 304 305 306 306 307 308 308 308 309 309 310 311 311 312 312 312 312 313 313 313 313 313 312 312 311 312
307 307 307 307 308 308 308 309 310 311 313 313 313 312 311 310 308 308 308 308 308 308 308 307 307 307 306 306 306 306 305 305 305 304 304 304 304 304 303 303 302 301 301 300 300 301 301 301 301 301 300 300 300 300 300 300 301 301 302 303 303 304 304 305 305 306 306 307 307 308 309 309 309 310 310 311 311 311 311 311 311 311 311 310 310 310 309
307 307 307 307 307 308 308 309 310 311 312 312 311 309 309 309 308 308 308 307 307 307 307 307 306 306 306 306 306 306 305 305 305 304 304 304 303 303 302 302 301 301 301 300 300 300 301 300 300 299 298 298 299 299 299 300 301 301 302 302 302 303 303 304 304 305 305 305 306 307 307 308 308 309 309 309 309 309 309 309 309 309 308 308 308 308 308
307 307 307 307 307 307 308 308 309 310 311 310 309 308 308 308 307 306 306 306 306 307 307 307 306 306 306 306 306 306 306 305 304 304 303 303 303 303 302 301 301 301 300 300 300 300 300 300 299 298 297 298 298 299 299 300 300 300 300 301 301 302 302 302 303 303 304 304 305 306 306 306 307 307 307 307 307 307 307 307 307 307 307 306 306 306 306
307 307 307 307 307 307 308 309 309 309 309 308 307 307 306 306 306 305 306 307 307 308 308 307 307 307 307 306 306 306 305 305 304 303 303 302 302 302 301 301 301 301 300 300 300 300 300 299 298 297 297 298 298 298 299 299 299 299 299 299 300 300 300 301 301 302 302 303 304 304 304 305 305 305 305 305 305 305 305 305 305 305 305 305 305 304 304
308 307 307 307 306 306 307 308 309 309 309 308 307 307 308 307 307 307 307 308 308 308 307 307 307 307 306 306 306 305 305 304 304 303 302 302 302 302 301 301 301 300 300 300 300 300 300 299 298 297 297 298 298 298 298 298 298 298 298 298 298 299 299 299 300 300 301 302 302 303 303 303 304 304 304 304 304 304 304 304 303 303 303 303 303 303 303
307 307 306 306 306 305 307 308 309 308 309 309 308 308 309 309 308 308 308 308 308 307 307 307 307 306 306 306 305 305 305 304 304 303 302 302 302 301 301 301 301 301 300 301 300 300 300 299 298 297 298 298 298 298 298 297 297 297 298 297 297 297 297 298 298 299 299 300 301 301 302 302 303 302 302 302 302 302 302 302 302 302 302 302 301 301 301
306 306 306 306 305 306 308 309 308 308 308 309 309 309 309 309 309 308 308 308 307 307 307 306 306 305 305 305 305 305 304 304 304 303 302 302 302 302 301 301 301 301 300 301 301 300 300 299 298 298 298 298 298 297 297 297 297 297 297 297 297 296 296 297 297 297 298 299 299 300 300 301 301 301 301 301 301 301 301 300 300 300 300 300 300 299 299
307 306 305 306 306 307 307 308 307 307 308 309 309 308 308 308 308 308 308 307 307 307 306 306 305 305 305 304 304 304 304 303 303 303 302 302 302 302 301 301 301 301 301 301 301 300 300 299 299 298 298 298 298 297 297 297 297 296 296 296 296 296 296 296 297 297 297 297 298 298 299 299 300 300 300 300 299 299 299 299 299 299 299 298 298 298 298
308 307 306 307 308 308 308 307 307 307 307 308 308 308 308 308 308 308 307 307 307 306 306 305 305 305 305 304 304 304 304 303 303 302 302 302 302 302 302 301 301 301 301 301 301 300 300 299 299 299 298 298 298 298 297 297 296 296 296 296 296 296 295 296 296 296 296 296 297 297 297 298 298 298 298 298 298 298 298 298 297 297 297 297 297 297 297
308 308 307 307 308 308 307 307 307 307 307 307 308 308 308 308 308 308 307 307 306 306 306 305 305 304 304 304 304 304 303 303 302 302 302 302 302 302 302 301 301 301 301 301 301 300 300 300 299 299 298 298 298 298 297 297 296 296 296 295 295 295 295 295 295 295 295 295 295 295 296 296 296 296 297 297 297 297 296 296 296 296 296 296 296 296 296
307 308 308 307 307 306 306 306 306 307 307 307 307 307 308 308 308 308 307 307 306 306 305 305 305 304 304 303 303 303 303 303 302 302 302 302 302 302 302 301 301 301 301 301 301 300 300 300 300 300 299 298 298 297 297 296 296 296 295 295 295 295 295 294 294 294 294 294 294 294 294 294 294 294 294 294 294 295 295 295 295 295 295 295 295 295 295
Wind_Speed
3 3 6 5 8 7 1 5 3 3 5 5 8 9 4 5 3 5 9 10 12 13 13 14 13 12 11 10 11 11 10 10 10 11 13 14 15 15 15 16 17 17 18 20 20 20 21 19 14 9 9 13 12 7 4 5 8 8 9 12 17 20 21 23 27 28 26 25 26 27 25 22 24 27 27 26 26 27 27 26 26 26 26 26 25 26 27
2 3 5 5 6 6 5 3 2 1 4 5 7 7 4 4 4 11 12 10 11 11 11 12 14 16 15 11 9 10 10 10 10 10 12 12 13 15 15 15 16 16 17 18 20 21 20 18 17 15 14 13 11 8 1 4 5 5 7 8 9 12 16 19 23 26 26 24 25 28 28 25 25 26 28 29 27 26 27 27 26 25 26 26 25 25 26
4 5 4 4 6 4 3 5 3 2 5 5 3 4 2 2 5 11 13 12 10 10 13 15 14 14 14 10 9 8 8 8 8 10 11 11 12 13 13 14 14 15 16 17 18 20 20 19 17 18 17 15 12 9 5 3 3 5 9 10 8 7 10 15 18 21 20 19 20 22 23 26 27 26 29 31 29 27 28 28 27 26 25 26 27 26 25
6 7 8 8 8 6 7 10 7 5 7 6 4 4 3 3 6 9 12 10 7 10 16 18 17 15 13 10 9 8 7 5 6 8 9 9 11 11 12 13 13 14 15 16 17 17 17 19 19 17 17 16 14 12 8 6 4 3 6 7 9 7 6 9 14 17 18 18 19 19 19 23 25 25 27 30 31 30 27 27 28 28 26 26 27 27 26
7 8 7 6 6 6 7 10 11 10 8 7 7 7 5 3 4 6 9 8 7 10 13 12 13 16 15 12 10 7 6 5 6 8 7 7 9 11 12 13 13 14 14 14 15 16 15 16 17 17 16 15 15 14 10 9 7 1 2 2 4 6 5 5 7 10 14 18 21 21 21 22 23 23 23 26 30 30 25 23 25 28 28 27 27 28 29
7 7 7 3 5 6 4 3 7 12 12 10 10 8 6 4 3 2 5 12 13 12 11 10 9 12 16 14 11 11 8 5 5 8 9 8 8 10 11 12 12 13 14 14 14 14 14 14 14 15 16 14 12 13 11 10 12 8 4 5 7 5 3 4 6 7 10 15 18 19 20 22 23 23 24 25 27 27 25 23 23 24 27 29 29 29 30
6 3 6 4 5 3 2 7 3 2 5 6 6 3 4 6 6 5 7 14 15 11 9 10 9 10 14 13 11 11 10 7 5 4 7 8 8 9 10 11 11 12 13 14 14 14 13 13 13 13 15 14 12 11 10 10 13 13 9 8 9 8 7 6 7 8 10 13 14 14 17 20 21 22 23 24 24 25 24 24 25 26 27 29 29 31 33
5 3 5 5 1 3 7 7 7 6 5 2 3 4 3 4 6 7 9 10 11 11 11 14 13 11 9 8 10 13 11 8 5 2 4 9 8 8 9 10 11 11 12 13 14 14 13 12 13 14 14 14 13 12 11 10 11 12 10 8 9 11 11 11 10 9 9 12 13 13 14 16 18 18 19 21 23 23 23 24 25 27 29 29 29 30 32
5 6 5 5 4 4 5 5 4 2 2 2 3 3 3 4 4 7 10 10 9 10 12 14 13 9 5 3 9 14 13 10 6 2 7 6 4 6 7 8 9 9 11 13 12 13 13 12 13 14 14 13 12 12 13 12 11 10 9 8 8 10 10 11 12 13 12 11 12 15 15 17 18 17 17 19 21 22 22 22 22 23 25 27 29 29 29
4 5 6 6 6 5 5 7 7 4 3 4 2 4 4 8 8 7 10 12 11 10 9 10 11 8 4 3 6 11 13 13 11 5 3 3 3 6 6 7 9 9 11 12 13 13 12 11 13 15 13 11 11 12 14 14 14 13 12 11 11 11 10 9 10 12 15 14 10 13 17 18 20 18 15 16 19 22 22 21 21 21 22 25 28 29 29
3 4 6 6 4 1 4 9 10 8 7 7 4 4 5 7 8 8 9 11 10 10 10 10 9 4 4 3 4 6 10 12 11 7 3 2 3 5 6 8 8 9 11 13 13 12 11 12 14 15 13 10 9 11 12 13 14 15 16 17 16 14 13 12 10 10 13 13 9 7 11 14 17 18 16 15 17 20 22 22 23 23 23 24 27 29 30
4 4 5 4 0 3 7 9 9 8 8 6 5 5 5 9 11 9 10 11 10 9 11 11 7 3 1 5 8 8 8 9 9 5 3 3 4 6 7 8 8 10 12 13 12 12 12 14 15 14 12 10 10 11 11 11 11 12 15 18 19 17 15 14 11 8 7 9 9 7 7 9 11 14 16 17 17 18 20 22 24 25 24 24 26 28 29
6 5 6 3 2 5 7 8 8 8 6 4 5 2 3 9 11 7 8 12 11 9 10 7 4 5 8 7 7 6 6 7 6 5 3 3 4 5 6 9 10 10 10 10 10 10 12 14 15 13 11 11 12 12 11 11 10 10 12 14 18 20 18 16 14 9 4 5 7 8 9 9 8 10 14 17 16 16 18 20 22 24 24 24 25 27 28
6 5 6 5 2 4 6 8 9 5 2 2 2 4 6 9 11 8 8 11 10 8 8 6 4 8 8 5 5 5 4 4 4 4 4 3 4 5 7 9 9 9 9 9 9 10 11 12 13 12 12 13 14 14 13 12 12 12 11 10 14 19 18 16 14 11 7 7 9 8 10 11 10 8 10 16 17 15 15 16 19 22 24 25 26 26 27
5 5 6 6 2 3 5 7 6 2 1 2 7 9 10 11 11 9 8 10 9 7 6 5 3 5 4 3 3 3 2 2 3 3 4 4 4 5 7 8 8 8 9 10 11 11 11 12 12 12 13 14 15 16 15 15 15 13 12 12 13 15 14 13 14 13 10 10 11 10 11 13 13 10 7 9 13 13 13 14 15 18 21 23 25 26 26
4 5 4 1 2 6 6 6 4 4 6 9 9 10 10 10 9 8 6 7 8 6 5 5 3 2 1 1 1 1 0 1 1 2 3 4 5 6 7 8 8 9 10 11 12 12 12 13 13 13 13 14 15 17 17 17 16 13 13 15 15 13 11 12 15 15 13 12 11 10 9 12 13 12 10 8 7 8 10 12 14 16 19 21 22 24 25
4 2 1 3 3 6 6 5 7 10 10 9 7 7 8 7 7 7 6 6 8 6 4 3 2 2 2 2 1 1 1 2 2 3 4 5 6 7 7 8 9 10 11 12 13 13 13 13 14 14 14 14 15 16 16 15 15 14 16 17 14 12 13 14 14 15 14 13 11 9 9 10 11 12 14 14 11 9 8 9 11 13 16 18 20 21 22
5 3 3 4 4 5 5 5 8 10 9 7 6 4 4 4 5 6 5 5 7 8 6 4 3 3 2 2 2 2 2 3 4 5 6 6 7 7 7 8 9 10 12 13 13 14 13 14 14 14 14 14 15 15 15 15 15 16 16 16 15 15 16 14 12 14 15 12 10 11 12 10 8 7 10 13 15 14 12 9 8 9 11 12 16 19 19
4 3 4 4 3 5 6 5 6 8 8 7 6 4 3 2 3 5 5 5 6 7 6 6 5 4 4 4 4 3 3 4 5 6 6 7 8 8 8 9 10 11 11 12 13 15 15 16 16 15 16 16 16 17 16 16 16 16 16 17 17 17 16 14 13 13 13 12 12 13 11 9 10 9 8 9 11 13 14 12 9 8 9 8 9 12 14
6 4 2 2 1 3 5 5 5 7 8 8 6 4 4 4 4 4 5 5 6 6 6 7 7 6 5 5 4 3 3 4 5 6 7 8 9 10 10 11 11 10 11 12 14 16 17 18 18 18 18 19 19 19 18 17 16 17 17 17 17 16 15 15 14 13 12 12 12 11 10 10 11 12 12 13 13 12 14 15 14 13 11 9 9 10 10
7 7 4 3 5 6 6 6 6 5 6 8 8 7 7 6 6 7 6 5 6 6 6 7 8 7 6 5 4 5 5 4 5 6 8 9 10 11 12 11 11 11 12 13 14 16 18 19 20 20 20 20 20 20 20 18 16 17 17 16 16 16 16 16 14 12 12 11 10 11 13 14 13 14 16 18 19 19 19 20 20 20 17 13 10 11 11
6 3 2 4 3 4 3 4 5 6 6 7 9 12 13 12 11 12 10 7 7 7 5 5 6 7 6 5 5 5 5 5 6 6 7 9 10 11 11 12 12 13 13 14 15 16 18 19 20 21 21 21 21 21 21 19 17 17 18 18 17 17 17 16 14 13 11 11 12 14 17 18 18 18 18 18 19 21 22 22 22 23 22 18 13 11 12
4 4 8 8 4 3 4 4 4 5 7 9 12 11 14 16 13 12 11 10 11 11 8 6 6 7 7 7 6 6 7 6 6 6 7 9 10 11 12 13 14 14 15 16 16 17 18 18 19 20 21 21 21 21 20 20 18 17 17 18 19 18 18 17 16 15 14 13 13 14 16 17 18 18 18 18 18 19 22 23 23 23 24 22 19 17 16
5 6 6 5 3 3 5 7 7 7 8 9 11 11 11 13 13 12 10 11 12 12 11 10 9 9 8 8 7 7 8 8 7 7 8 8 9 11 12 12 13 15 16 17 18 19 19 19 19 20 22 22 21 21 21 20 20 19 18 18 19 19 19 19 18 17 16 15 13 14 15 16 16 16 17 18 18 18 18 21 24 25 25 25 23 22 21
4 6 6 6 5 6 8 9 9 9 9 10 12 13 12 12 13 13 12 10 10 12 13 13 12 10 9 9 10 10 9 9 8 8 9 9 10 11 11 11 13 14 15 17 20 21 20 19 19 20 21 20 20 20 20 20 20 20 19 19 19 19 19 19 20 19 18 17 16 16 17 16 14 14 16 17 18 19 20 22 24 25 25 26 25 23 23
5 7 8 9 10 11 11 12 12 11 11 11 11 13 14 13 12 13 13 13 13 13 14 14 14 13 11 10 10 10 9 9 10 10 10 10 10 10 11 12 13 14 16 18 20 19 18 17 17 18 20 20 19 20 20 19 19 20 19 19 20 20 19 19 20 20 19 18 17 16 16 15 14 14 15 15 16 20 23 25 26 25 25 24 23 22 22
5 6 7 8 9 10 10 11 11 12 13 13 11 12 15 16 15 14 14 15 14 14 15 15 14 13 12 11 11 10 9 10 11 11 10 10 10 11 11 12 13 14 16 17 18 17 18 18 17 16 17 18 18 18 18 18 20 20 19 19 20 20 20 21 21 19 17 17 17 17 17 17 16 15 16 16 18 21 23 25 25 24 23 20 17 18 21
6 6 6 7 8 9 9 10 10 11 13 14 14 13 15 16 17 16 17 17 16 15 16 15 14 14 13 11 11 11 11 10 11 10 10 11 11 11 11 12 12 13 14 16 16 16 17 17 16 16 16 17 18 18 16 16 18 18 18 19 20 20 20 20 19 16 14 15 16 17 17 17 17 19 21 22 22 21 21 20 20 20 20 18 17 18 20
6 5 4 5 8 10 11 12 12 12 12 14 15 16 16 17 18 20 20 19 18 17 18 16 14 16 16 13 10 10 10 11 11 11 11 11 11 11 11 12 11 11 12 14 14 15 16 16 16 16 16 16 17 17 17 17 17 18 18 19 19 18 18 18 16 14 14 16 18 19 20 20 21 22 23 23 21 20 18 18 18 19 20 20 19 17 17
8 7 6 8 9 11 12 13 13 14 14 14 14 15 16 18 19 21 21 20 19 19 19 17 14 15 16 15 13 10 8 9 10 11 11 10 10 10 11 10 10 10 11 12 14 15 16 17 16 16 16 16 16 16 16 16 17 19 19 17 16 15 15 15 16 16 17 18 19 20 20 20 19 20 19 19 19 19 19 19 19 19 19 19 17 15 14
8 8 8 9 9 10 12 12 12 14 15 15 15 16 17 19 20 20 20 20 20 20 19 18 16 15 15 14 12 9 7 8 10 10 10 11 11 11 10 9 9 9 10 12 13 14 15 16 16 17 17 17 16 15 15 15 16 16 16 14 14 14 14 15 16 17 16 16 16 17 18 18 18 18 18 19 19 19 19 19 19 18 17 16 15 14 15
9 9 9 9 8 9 11 11 12 13 15 15 17 19 20 20 21 21 21 20 21 21 20 19 18 17 15 13 11 9 8 9 9 9 10 11 11 10 10 10 10 11 11 11 12 14 15 16 16 17 17 17 16 15 15 15 15 15 16 15 14 14 14 14 15 15 17 18 18 17 18 18 19 19 19 19 19 19 19 19 19 18 17 16 15 16 17
10 10 10 9 10 11 12 13 13 14 14 15 16 18 20 21 21 21 20 19 20 21 20 18 18 17 16 13 10 8 8 9 9 9 9 10 9 10 11 11 11 11 12 11 11 13 15 16 16 16 17 19 18 17 16 15 15 16 16 16 17 16 16 16 16 16 17 17 18 18 18 19 20 21 21 20 20 19 19 20 20 20 19 18 16 16 18
10 11 12 12 13 13 14 14 15 15 14 15 17 16 15 17 19 19 18 16 17 19 19 18 18 16 13 10 9 9 9 9 8 8 8 8 9 10 11 11 11 11 11 10 9 11 15 17 16 16 17 18 18 16 15 15 16 16 15 16 17 19 18 18 19 19 18 18 19 20 21 22 22 22 22 22 21 21 20 20 21 21 21 21 19 17 17
12 14 15 15 15 15 14 15 15 15 14 15 16 16 13 15 18 18 18 17 15 16 16 16 14 11 8 7 8 8 8 7 7 7 7 8 8 7 8 10 10 10 10 9 8 11 15 15 14 15 18 17 16 14 14 15 16 16 16 16 17 17 17 18 20 21 21 21 22 22 22 22 23 23 23 23 23 23 23 24 24 24 23 22 21 19 18
15 16 17 17 17 16 16 16 16 16 15 15 16 17 15 15 16 17 19 19 17 17 16 13 10 8 6 6 7 7 6 6 7 7 7 8 8 7 7 9 10 11 10 8 8 11 13 13 13 15 17 15 14 13 14 14 15 16 18 18 17 17 17 19 20 21 22 22 22 23 23 23 24 25 25 25 25 24 24 24 25 24 24 22 21 20 21
16 17 18 18 18 18 18 17 17 16 15 14 15 14 13 13 16 17 17 17 20 21 20 15 11 8 7 7 7 6 5 5 5 6 6 7 7 6 6 8 9 10 9 9 10 13 13 13 15 15 15 14 14 14 14 14 15 16 17 17 17 17 18 19 20 21 21 21 22 22 23 24 25 24 23 23 23 23 23 23 23 23 23 23 23 24 26
20 20 20 20 19 19 19 19 18 16 15 14 14 12 13 15 17 18 18 19 20 20 17 13 10 9 8 7 6 6 5 4 3 4 5 6 6 6 6 7 9 9 8 9 13 15 14 14 15 15 14 14 14 14 14 15 16 17 17 17 17 18 19 20 20 21 21 21 22 23 24 24 24 23 22 22 22 22 22 23 23 24 24 25 27 29 30
21 21 20 20 19 18 18 19 17 15 15 15 13 11 13 16 17 17 19 18 16 13 13 12 11 10 9 7 7 6 4 3 3 3 3 5 5 5 5 6 9 10 10 11 13 14 14 14 14 14 14 13 13 14 15 17 18 19 19 18 18 19 19 19 20 20 21 21 22 23 24 24 24 24 24 24 24 23 23 22 23 23 23 24 25 27 28
20 20 19 19 19 19 19 18 17 17 16 15 12 11 14 16 17 17 17 16 15 14 14 14 12 11 9 8 7 6 4 3 2 2 3 4 4 4 5 6 8 9 11 13 14 14 13 13 12 12 13 14 14 15 17 18 19 20 19 18 18 18 18 18 19 20 20 21 21 22 23 24 24 24 23 22 22 22 22 21 20 20 20 21 22 24 26
19 20 19 19 19 19 18 17 17 16 14 11 10 13 16 18 18 18 18 17 16 15 14 13 12 10 9 8 6 4 4 3 2 2 3 3 4 4 5 7 8 10 12 14 14 12 11 11 10 11 14 15 15 16 19 20 20 18 17 16 16 17 17 18 19 19 20 21 22 22 23 23 23 22 21 20 21 22 23 23 22 22 22 23 24 24 25
22 21 21 21 20 18 18 18 16 12 9 8 10 15 19 21 21 21 19 17 16 14 13 12 12 10 8 7 6 4 4 3 1 2 3 4 5 5 5 6 8 10 14 15 13 10 9 10 10 12 15 17 18 18 20 19 17 16 15 15 16 16 17 18 18 19 20 21 21 21 21 21 21 20 19 19 20 21 23 24 24 24 24 24 24 24 24
23 22 20 20 20 18 16 16 12 10 11 13 17 22 25 25 24 23 20 19 18 16 13 12 11 10 8 7 5 5 4 2 1 2 3 4 4 4 4 5 6 9 13 14 11 8 9 10 11 15 18 18 18 18 18 16 14 14 15 15 15 16 17 17 18 19 20 20 20 20 19 19 19 19 18 18 19 20 21 23 23 22 21 21 22 23 23
23 21 20 19 19 18 17 14 11 14 18 21 23 25 25 24 24 22 18 17 17 16 13 11 10 10 8 6 5 5 4 1 1 1 2 3 1 3 6 8 7 9 12 12 9 7 8 10 14 18 19 16 16 16 15 13 13 14 15 15 16 16 16 17 17 18 20 20 19 18 18 18 19 19 18 19 20 19 18 18 19 19 19 20 21 21 21
22 20 19 17 17 17 16 14 13 18 21 22 21 20 19 19 20 19 17 17 17 16 13 11 10 9 8 6 5 5 3 2 1 0 2 3 2 3 8 9 7 9 11 10 8 7 9 13 19 21 18 15 16 16 13 13 15 15 15 16 16 16 17 17 17 18 20 20 18 17 17 18 19 19 19 19 19 18 17 18 19 20 21 21 21 21 20
18 16 15 15 17 18 16 13 14 18 19 20 20 20 19 18 19 20 19 18 17 14 13 11 9 8 7 6 5 4 3 3 3 2 2 3 2 4 7 8 7 8 9 8 7 7 11 15 20 21 18 15 16 15 13 14 15 15 14 16 17 16 17 18 18 19 20 20 19 18 18 18 17 17 17 17 17 17 18 19 19 19 20 21 21 20 20
13 11 10 12 15 16 13 12 15 19 20 20 21 22 21 20 19 19 18 17 15 14 13 11 9 7 6 5 4 4 3 3 3 2 2 2 3 4 6 6 6 8 9 8 7 9 13 17 20 20 17 15 15 14 13 14 15 14 14 16 17 17 18 19 18 19 19 19 17 18 18 17 16 16 16 16 16 16 17 17 17 17 18 19 19 19 20
9 7 9 11 12 12 11 11 15 20 21 19 19 20 21 20 19 18 17 15 14 13 12 10 8 7 6 5 4 3 2 2 2 2 1 2 2 4 5 5 6 8 9 8 8 10 14 17 19 18 16 14 13 13 13 13 13 13 14 14 15 17 19 20 19 19 19 17 16 15 15 15 14 14 14 14 13 13 13 15 16 17 17 17 17 16 16
4 2 6 9 10 11 11 12 15 18 19 18 18 20 21 20 18 17 16 15 14 12 11 10 8 6 5 4 4 3 2 2 2 1 1 2 3 4 5 6 7 7 8 8 7 9 12 15 16 15 14 12 12 12 13 13 12 13 14 13 13 15 18 18 18 17 17 17 16 15 14 14 14 14 13 12 12 11 11 12 13 14 14 14 14 13 13
4 2 6 8 8 9 12 16 17 16 16 17 18 18 18 18 17 16 14 13 12 11 10 9 8 6 5 4 4 3 2 1 1 1 1 2 3 4 4 5 6 7 7 8 8 8 9 11 12 11 12 12 11 11 13 14 13 12 13 13 13 14 16 17 17 16 15 15 15 15 15 15 15 15 15 14 13 13 12 11 12 12 12 12 13 13 13
9 8 8 9 10 11 15 17 16 14 15 17 16 15 14 15 14 13 13 12 11 10 9 8 8 7 5 4 3 3 2 2 1 0 1 2 3 4 5 5 7 7 7 7 8 7 8 9 10 10 11 11 11 11 12 13 13 12 12 13 13 13 15 16 16 15 14 14 15 15 14 14 14 14 14 14 14 14 12 11 11 12 11 10 10 11 11
13 13 13 13 14 16 17 16 14 14 15 15 14 13 13 13 11 11 11 10 9 8 9 8 7 6 5 4 3 2 1 1 0 1 2 2 3 4 5 5 6 7 7 7 7 7 7 7 8 8 9 9 10 10 10 11 11 11 12 12 12 12 12 15 16 15 14 13 14 14 14 13 12 12 11 11 11 10 9 9 9 8 6 5 4 5 5
Wind_Direction
228 321 321 317 330 334 123 132 113 216 245 276 268 263 299 5 26 138 151 152 144 145 148 141 127 117 113 113 117 117 109 99 93 89 85 78 74 72 68 64 59 54 51 50 53 61 65 65 66 64 55 57 71 93 129 184 193 203 221 229 233 236 235 231 229 228 227 227 229 230 227 224 227 231 230 229 228 226 227 227 223 220 219 220 225 226 224
237 259 289 291 307 353 50 102 94 11 277 264 259 270 315 20 103 145 152 146 138 142 146 140 128 115 104 95 108 123 114 104 104 96 81 71 69 68 65 63 61 58 54 49 47 49 54 65 76 70 53 51 67 76 95 226 220 214 215 224 235 240 240 234 226 224 226 229 233 233 231 226 225 229 232 232 231 229 229 229 227 225 224 221 223 228 227
270 226 227 266 279 306 305 258 229 236 271 269 263 274 311 78 149 151 144 143 146 136 124 124 125 122 117 108 103 105 101 103 103 94 83 71 63 64 65 61 57 57 55 48 46 45 42 47 63 71 64 57 58 61 53 357 299 239 222 225 232 239 247 240 227 222 227 234 237 237 233 229 229 230 232 232 233 233 231 230 229 228 227 224 224 227 229
263 224 208 228 245 254 262 260 246 220 231 240 233 227 210 199 196 168 149 150 154 140 133 131 130 133 134 129 116 92 66 74 88 80 75 68 58 56 60 60 54 51 51 46 43 43 41 38 41 53 66 68 59 55 55 38 2 262 225 231 243 250 256 247 238 237 240 244 244 242 236 232 236 239 238 234 233 234 236 234 230 230 230 229 227 226 228
250 217 197 223 243 241 247 248 237 221 218 229 234 221 200 215 244 205 169 149 131 136 142 141 138 141 142 144 147 129 76 69 104 97 81 59 53 53 50 53 55 49 45 44 41 39 40 37 35 39 49 61 66 62 56 47 38 354 259 344 307 278 266 258 255 249 244 242 243 242 238 238 244 249 249 245 237 237 245 246 237 234 233 232 232 229 227
249 194 157 189 240 236 255 269 227 214 207 213 226 219 183 130 27 355 140 137 142 153 156 159 165 154 141 138 148 150 134 122 126 111 94 67 48 52 47 43 50 48 41 41 38 35 37 35 33 36 36 40 58 66 62 53 48 39 358 357 360 336 302 273 261 251 244 244 246 247 245 245 251 253 254 255 248 244 256 263 255 243 235 232 235 235 231
264 165 147 203 238 221 69 45 39 174 180 203 216 192 153 131 96 79 118 137 152 166 156 144 145 142 139 140 149 157 155 148 156 146 112 90 54 44 44 36 41 44 37 34 32 29 32 29 25 31 33 27 26 37 55 66 56 41 24 17 21 13 1 339 298 274 262 253 252 256 258 257 258 256 253 255 253 250 253 258 256 246 234 229 232 236 236
265 235 190 204 209 95 96 77 57 61 72 94 133 119 111 113 112 121 130 136 147 152 137 125 126 142 157 154 147 151 153 154 177 279 63 85 62 39 40 31 31 36 31 29 26 22 24 23 18 21 26 24 15 11 23 44 48 36 25 26 37 37 29 17 1 337 305 277 263 262 263 264 267 266 258 251 252 253 249 246 246 244 237 232 230 233 238
246 255 230 182 145 140 145 130 118 132 128 129 178 202 168 146 151 145 143 152 161 156 144 130 125 134 143 129 145 154 149 141 145 45 41 72 60 37 38 25 23 25 19 18 16 14 17 14 9 14 20 18 13 4 2 11 19 18 13 10 17 25 28 26 22 12 355 326 292 276 268 266 268 272 270 259 252 252 250 243 242 245 246 243 237 235 240
234 256 254 220 203 208 186 151 135 132 113 106 157 245 199 172 187 178 160 170 174 160 146 128 116 120 153 185 180 168 151 137 139 134 91 91 55 33 19 2 8 7 357 358 2 6 7 357 357 10 16 10 7 5 1 3 4 357 353 352 355 359 3 11 26 21 9 0 331 294 284 278 272 270 274 270 256 248 248 248 247 247 247 247 244 241 242
249 253 255 243 240 290 101 114 112 105 99 104 134 222 205 164 162 162 161 169 170 159 147 136 128 154 206 176 113 115 122 123 128 132 114 63 22 11 355 349 357 347 329 333 346 355 351 342 349 3 4 355 360 4 360 3 6 355 344 343 348 353 353 356 19 28 6 360 1 323 295 290 285 276 272 273 263 248 244 248 252 252 250 247 246 246 245
250 243 248 252 256 89 104 109 110 112 118 136 181 211 183 145 144 156 162 158 153 141 133 137 152 189 172 101 89 83 88 97 100 97 72 16 350 347 346 343 336 321 314 321 335 340 333 333 344 352 348 342 348 354 354 359 6 357 344 340 342 346 349 349 4 26 5 351 5 358 320 304 298 283 268 267 266 254 247 249 252 255 256 252 249 248 247
236 233 245 254 88 103 125 130 123 122 134 175 204 201 120 127 135 149 160 154 148 135 134 149 155 111 95 96 98 87 77 78 75 63 50 22 360 349 341 334 327 324 327 331 332 327 324 330 338 338 334 335 339 341 344 348 351 346 341 338 338 340 343 345 351 4 7 356 4 360 345 334 317 288 266 261 262 256 253 256 256 256 258 256 252 249 248
241 238 241 234 165 124 143 133 114 112 181 221 146 106 103 115 117 114 131 141 138 135 148 157 110 96 102 100 91 80 63 58 55 40 32 23 9 354 342 341 340 338 338 334 327 324 325 326 330 328 322 321 324 328 332 334 334 334 332 332 334 337 340 343 346 346 347 352 353 351 352 352 346 324 278 257 254 255 259 264 264 260 259 259 257 255 252
240 240 244 247 214 146 154 137 111 50 328 116 111 107 104 103 101 97 107 130 143 152 158 153 108 99 109 80 69 79 53 35 26 13 22 23 8 351 342 343 346 343 337 332 328 327 324 318 317 322 322 315 310 312 317 322 325 326 324 326 332 337 339 340 341 340 337 339 343 347 349 345 345 353 336 275 266 272 274 273 271 266 264 263 262 261 259
243 238 239 260 123 135 139 135 115 78 90 112 118 115 116 118 119 117 113 129 148 155 148 141 137 134 158 334 20 124 104 10 359 6 13 5 356 353 348 343 340 336 332 330 326 323 323 318 311 308 312 313 310 308 310 315 319 320 319 323 330 332 328 327 334 338 335 331 337 348 343 326 323 334 344 339 329 319 300 288 283 277 271 268 268 265 263
290 304 66 82 120 148 142 123 116 111 111 117 113 112 132 144 142 140 145 150 156 160 154 142 156 210 235 240 236 231 281 291 333 355 352 350 350 349 345 341 335 326 322 322 322 321 321 321 316 308 306 311 314 313 310 307 307 309 315 321 323 317 316 322 329 331 331 334 337 330 316 311 318 327 328 331 339 340 323 309 303 296 284 274 270 269 267
280 275 186 154 156 163 153 128 119 120 127 132 126 126 147 148 131 134 145 155 157 162 166 164 185 218 222 230 250 272 291 302 324 334 335 339 341 338 338 335 328 322 320 319 319 319 318 319 319 316 311 309 305 302 303 305 304 305 308 309 306 305 311 318 324 325 328 331 322 313 314 315 312 309 315 321 323 322 317 313 312 311 303 286 274 274 277
244 233 182 165 169 171 174 173 152 143 150 154 154 159 153 135 144 151 151 152 153 160 172 180 194 213 221 237 253 263 293 299 303 315 323 327 327 328 328 325 321 322 321 318 317 318 317 318 319 316 311 307 298 292 297 305 305 300 294 293 296 302 308 311 315 319 322 321 315 316 321 317 299 289 293 306 313 313 310 307 304 302 306 312 305 292 286
234 235 160 127 173 193 198 211 196 174 173 172 166 160 144 135 149 155 155 168 177 189 201 197 196 207 218 233 246 252 272 284 290 303 312 315 318 319 319 319 320 321 318 315 315 315 315 316 318 316 314 311 307 301 299 301 302 299 296 294 296 298 300 305 309 311 311 315 319 314 305 303 307 304 295 289 289 289 288 290 294 297 298 310 329 326 309
239 247 246 239 229 217 215 230 236 221 197 189 190 191 181 170 174 179 183 196 206 212 208 193 191 206 220 232 242 247 259 276 285 293 299 305 310 314 316 317 318 316 313 313 313 313 314 316 315 315 313 312 312 311 307 303 301 300 298 295 293 293 296 300 305 306 306 309 307 293 284 290 299 298 295 297 297 293 288 287 291 296 299 301 312 323 326
230 234 17 6 298 243 239 250 255 261 252 238 231 215 197 192 198 199 197 204 217 223 220 204 204 216 224 228 240 254 267 275 277 282 293 301 306 310 312 313 314 315 315 314 312 311 311 312 313 313 312 310 310 310 310 308 304 300 298 296 291 290 292 294 298 301 301 301 298 292 291 296 300 299 298 301 301 299 297 295 290 291 297 301 300 303 313
291 28 45 37 11 310 315 317 290 275 272 279 282 256 213 203 212 219 216 220 225 223 222 223 227 232 233 234 246 261 271 277 282 285 291 297 301 305 309 311 313 316 315 314 314 312 310 309 309 309 309 309 308 307 308 308 304 299 296 296 293 290 289 291 293 294 294 295 297 296 298 302 305 304 302 299 298 300 302 300 294 290 295 299 298 293 294
326 357 21 29 15 309 304 305 299 288 272 270 280 274 242 227 235 242 239 234 227 222 225 232 234 236 238 241 248 259 270 279 283 285 288 294 299 303 307 311 312 314 315 314 311 307 306 308 308 307 305 304 304 305 305 304 302 297 291 289 290 289 287 285 285 287 293 298 296 291 293 297 298 299 300 299 298 299 299 298 297 297 298 299 298 292 286
296 312 325 324 304 290 292 292 287 282 273 264 261 260 255 249 247 245 241 234 222 218 227 235 236 235 240 246 252 259 267 274 277 282 289 294 298 300 303 306 308 308 310 310 306 302 302 305 309 309 306 301 300 301 301 300 299 296 290 287 289 288 286 285 284 283 285 291 292 291 294 298 298 296 297 299 300 299 296 296 300 303 304 303 302 298 289
286 291 295 293 283 276 272 271 269 266 261 259 260 261 258 251 247 247 245 236 224 216 218 226 233 237 240 245 251 257 265 271 276 282 288 289 292 296 299 301 304 305 306 305 305 308 312 311 310 310 309 307 306 304 300 297 296 293 289 287 287 285 283 285 284 282 283 289 294 295 296 296 294 290 290 294 297 297 296 298 303 307 309 309 310 307 297
271 272 277 280 280 274 265 262 269 271 261 251 253 262 262 254 249 251 247 239 229 216 210 216 227 234 242 252 256 256 261 269 274 277 282 284 286 291 295 298 300 303 304 304 308 316 320 316 310 306 304 304 305 305 304 303 300 295 291 289 287 284 282 281 278 277 285 292 293 292 291 290 285 279 278 283 288 290 293 299 305 309 311 312 310 305 301
257 258 261 267 277 285 285 280 282 282 273 263 257 259 263 258 249 243 239 234 225 211 207 214 221 228 242 257 258 252 255 265 271 273 277 282 285 288 294 298 298 299 304 308 313 317 315 312 311 308 300 296 294 293 294 298 299 296 292 289 286 286 285 281 276 276 283 287 284 283 284 282 277 274 278 284 291 295 298 300 302 303 303 301 298 298 302
288 285 282 287 291 295 295 292 288 280 275 270 262 256 258 258 249 239 234 229 220 211 210 212 215 223 236 248 252 251 253 259 265 271 275 280 286 289 294 297 298 298 302 309 311 309 305 307 312 312 307 305 303 297 291 289 290 291 289 285 282 281 278 274 272 274 277 275 272 275 278 278 277 281 286 290 296 300 299 294 290 290 292 295 299 301 301
309 308 302 297 294 291 290 292 291 285 278 273 264 255 254 253 249 242 235 227 221 218 215 210 209 217 227 237 250 261 262 256 262 271 275 279 287 292 292 295 299 300 302 305 307 305 305 309 312 310 305 308 314 313 309 303 295 290 288 284 280 276 273 272 274 279 282 280 278 280 283 285 286 288 291 292 293 292 289 285 284 286 290 294 297 298 293
301 300 295 288 287 291 293 295 300 299 290 278 267 259 255 251 246 243 237 226 219 217 215 211 210 211 216 227 244 257 257 256 264 272 274 279 287 291 292 295 298 298 298 301 304 306 307 308 310 308 306 308 314 318 319 315 305 295 288 284 283 283 284 284 284 286 288 288 286 285 286 287 288 288 288 288 287 286 285 284 284 285 286 287 288 287 282
301 298 295 293 294 297 298 300 306 307 302 290 274 261 255 251 245 241 237 226 216 214 215 212 210 211 216 222 230 236 240 250 262 269 275 281 286 288 292 295 292 289 291 294 299 304 305 302 301 300 301 304 310 315 317 314 306 296 287 282 284 289 291 291 291 291 289 287 286 287 288 289 289 289 287 286 285 285 284 283 282 281 282 283 283 280 275
302 302 303 307 309 309 309 310 309 308 309 306 291 270 257 252 246 241 237 230 218 213 212 209 206 210 215 215 214 225 238 247 257 265 273 282 286 285 287 289 289 288 287 288 294 299 297 293 293 295 296 298 304 313 323 323 315 304 294 286 283 283 285 287 289 290 291 293 293 291 289 288 287 287 285 283 283 282 281 279 279 278 278 276 275 274 273
294 296 300 302 302 302 304 306 307 307 307 308 304 290 267 251 242 235 233 229 215 203 205 209 209 207 204 199 205 224 235 242 255 266 272 280 288 288 283 283 289 292 286 285 293 294 287 287 291 293 295 300 308 316 321 317 310 307 306 299 290 285 284 284 283 280 282 288 290 286 283 283 284 285 284 282 280 278 276 274 274 276 276 274 272 273 276
286 287 290 292 292 293 295 295 298 303 303 301 303 299 277 253 245 242 241 235 213 193 199 214 213 197 181 185 206 222 230 237 254 269 274 278 288 296 290 289 296 296 287 284 291 286 282 289 297 294 292 301 312 315 310 305 304 307 309 306 300 293 289 288 286 283 283 286 288 287 285 283 282 281 280 279 278 277 274 272 273 275 277 278 276 272 267
287 284 285 287 287 289 292 290 290 295 296 293 294 293 278 255 244 244 243 234 213 192 188 191 182 167 169 192 208 220 230 239 251 266 277 281 286 295 298 299 301 298 290 287 286 280 283 297 306 301 298 305 311 310 307 307 309 310 307 303 301 299 295 292 291 289 289 290 289 287 285 281 279 278 279 279 278 278 277 277 276 275 276 278 276 268 261
287 285 284 284 284 286 289 289 288 289 289 286 284 280 264 242 235 234 226 208 194 191 191 183 169 169 185 198 209 222 233 241 253 269 284 289 290 296 304 305 302 297 294 290 287 286 291 301 305 306 310 313 310 307 307 308 310 313 312 308 305 302 298 295 293 290 289 287 285 284 283 281 279 280 281 281 279 277 277 277 277 276 275 274 271 269 271
287 285 283 282 282 282 284 285 285 282 279 279 277 263 242 233 231 221 202 188 188 194 196 189 181 182 187 193 205 216 223 234 255 277 293 299 302 309 312 304 300 301 303 298 296 298 303 306 306 308 312 311 309 310 309 307 309 313 312 308 306 302 298 295 293 290 288 287 285 283 282 282 282 282 282 280 277 275 274 275 275 275 274 273 273 276 281
285 284 282 281 281 281 282 284 283 277 271 273 272 251 228 223 217 201 190 190 193 190 179 174 175 179 183 190 200 204 207 223 247 277 299 302 306 318 315 304 305 311 310 303 303 307 311 311 311 310 307 305 311 317 314 310 311 312 308 305 306 304 299 295 293 291 289 288 286 284 283 283 283 283 282 279 276 274 273 273 273 272 271 272 275 278 281
282 282 282 282 282 281 280 281 280 276 271 269 260 232 213 208 199 187 182 181 178 172 169 171 174 175 179 187 194 199 202 209 233 283 302 304 309 313 306 308 318 320 312 309 313 316 314 314 317 317 311 308 312 318 317 314 314 315 312 309 308 306 301 298 295 293 291 289 286 285 285 284 283 283 281 277 274 273 272 270 269 267 266 268 273 276 279
279 279 279 280 280 279 278 279 279 274 268 262 244 217 200 188 176 168 165 166 167 168 170 170 170 173 179 182 181 185 192 197 236 302 305 308 316 313 307 317 325 318 309 315 323 325 318 317 321 321 317 315 314 316 317 316 317 318 317 314 310 307 303 300 297 295 293 291 288 286 286 285 283 281 278 275 274 275 274 271 268 266 267 270 274 277 279
275 274 274 274 274 274 275 276 272 259 239 221 201 184 172 165 159 157 157 162 166 166 166 167 169 169 168 171 175 177 180 192 258 316 312 309 315 315 314 322 325 317 316 324 333 332 324 324 326 325 324 323 321 320 321 322 321 321 320 317 313 310 307 304 302 300 296 293 290 289 287 286 283 279 276 275 275 275 274 274 273 273 274 274 275 276 278
272 270 269 269 268 268 270 267 250 212 186 179 171 160 154 153 156 158 162 168 170 167 166 171 175 166 155 161 179 182 176 194 279 327 336 328 329 338 338 335 331 327 328 334 340 340 337 338 333 328 327 327 326 328 330 332 330 327 324 322 319 315 312 309 307 305 302 299 296 294 291 288 285 281 278 277 276 277 278 279 277 274 273 273 275 278 280
275 267 265 266 262 258 258 254 222 183 175 174 169 160 156 158 163 166 169 170 169 167 165 166 170 170 167 170 180 179 174 198 274 328 342 334 336 349 345 344 344 339 337 341 347 348 344 342 337 335 335 337 338 339 342 341 337 333 329 326 323 320 317 314 312 309 305 301 298 298 296 291 286 283 280 280 280 280 279 278 273 268 267 270 275 279 282
282 270 263 261 254 248 247 238 206 183 180 179 173 166 162 164 168 172 170 164 161 164 165 162 160 166 170 170 168 169 172 174 151 65 344 324 289 310 329 337 341 339 338 346 356 351 337 334 338 343 349 351 349 349 351 348 342 339 337 333 329 325 320 316 312 311 307 301 297 299 298 294 290 286 283 281 280 278 275 274 274 273 273 276 278 279 278
286 271 259 253 248 244 239 225 201 189 184 181 176 173 171 168 168 169 169 165 161 160 162 161 157 158 161 163 162 166 174 172 157 132 11 345 321 321 331 337 342 342 342 347 351 341 333 336 344 351 359 0 357 356 355 349 345 343 340 336 334 331 325 317 310 305 303 301 299 298 295 291 289 289 285 281 281 281 279 279 280 280 280 281 281 280 278
284 267 253 249 245 238 230 217 203 193 185 178 176 174 171 167 166 166 164 162 160 157 155 154 149 144 147 155 159 167 182 180 157 127 58 13 2 353 346 339 337 344 349 350 342 335 334 341 349 357 3 4 0 357 353 348 345 344 340 337 336 335 333 328 319 310 304 301 300 299 293 288 288 291 289 286 286 285 283 280 279 279 280 283 285 285 283
288 260 243 241 231 216 205 201 195 188 180 174 172 172 167 162 160 161 159 156 154 153 151 146 140 135 140 148 149 154 175 175 152 120 52 9 358 352 346 339 335 340 347 350 347 341 338 340 347 357 4 5 0 355 351 349 347 343 339 338 337 336 337 337 332 322 313 306 302 299 295 291 292 295 295 293 290 287 285 285 283 281 281 285 290 292 290
320 246 209 205 195 185 183 183 184 184 180 171 167 167 164 157 152 153 156 155 153 151 149 146 143 142 146 151 148 148 157 159 142 105 44 17 351 333 333 336 338 338 343 349 353 349 341 339 344 355 4 4 359 353 349 348 347 343 339 337 335 334 337 339 338 331 322 313 304 297 293 291 290 291 291 292 291 289 288 288 288 286 287 289 289 288 288
17 104 158 163 159 162 170 171 171 174 176 172 167 162 156 150 149 152 155 156 156 155 153 151 150 149 144 139 140 149 163 164 152 132 21 356 341 330 330 332 331 331 339 347 349 347 342 338 340 349 359 3 360 353 348 347 347 345 344 341 336 332 334 338 341 340 335 327 317 308 301 296 293 290 289 289 288 286 285 283 284 288 293 292 288 285 284
49 74 109 133 138 140 148 154 155 152 152 157 159 156 149 146 148 152 153 155 157 158 156 154 153 151 148 144 145 155 171 174 169 258 312 326 329 330 331 331 329 331 338 344 342 340 339 335 333 339 352 360 359 355 352 350 348 347 347 347 344 339 336 339 342 344 342 337 330 324 318 311 306 302 299 294 288 285 282 281 283 290 296 295 287 282 279
65 82 102 122 129 123 121 127 137 140 141 145 152 155 153 151 150 149 150 153 157 161 161 159 155 152 155 161 159 158 165 186 262 306 307 308 315 320 325 329 330 331 333 335 334 333 335 336 335 337 346 354 355 354 356 357 355 351 350 351 350 345 340 341 344 345 343 338 335 332 328 324 321 318 318 316 312 304 295 287 285 288 295 300 293 281 273